Home   Weather   Gunsan   Past weeks

Flag for South Korea Past Weather in Gunsan, South Korea — Yesterday and Last 2 Weeks

Now
64 °F

Passing clouds.


Feels Like: 64 °F
Forecast: 65 / 74 °F
Wind: 6 mph from East

Location: Kunsan Ab

Current Time: Oct 1, 2016 at 10:39:05 AM

Latest Report: Oct 1, 2016 at 10:02 AM


Visibility: 9 mi

Pressure: 30.07 "Hg

Humidity: 100%

Dew Point: 64 °F

Location of GunsanLocation

Past Weather in Gunsan — Graph

°F

Gunsan Temperature Yesterday

Maximum temperature yesterday: 67 °F (at 3:58 AM)
Minimum temperature yesterday: 63 °F (at 11:58 PM)
Average temperature yesterday: 65 °F

High & Low Weather Summary for the Past Weeks

 TemperatureHumidityPressure
High83 °F (Sep 26, 4:58 PM)100% (Sep 16, 7:03 PM)30.18 "Hg (Sep 16, 7:03 PM)
Low58 °F (Sep 21, 6:58 AM)39% (Sep 21, 1:58 PM)29.72 "Hg (Sep 17, 4:03 PM)
Average70 °F83%29.97 "Hg
* Reported Sep 16 8:58 AM — Oct 1 8:58 AM, Gunsan, Weather by CustomWeather, © 2016

Note: Actual official high and low records may vary slightly from our data, if they occured in-between our weather recording intervals... More about our weather records

Advertising

Gunsan Weather History for the Previous 24 Hours

Scroll right to see more
 ConditionsComfort  
Time TempWeatherWind HumidityBarometerVisibility
8:58 AM
Sat, Oct 1
64 °FSunny.3 mph99%30.07 "Hg7 mi
7:58 AM64 °FPassing clouds.2 mph99%30.05 "Hg8 mi
6:58 AM63 °FScattered clouds.5 mph100%30.03 "Hg7 mi
5:58 AM63 °FClear.3 mph100%30.02 "Hg7 mi
4:58 AM63 °FClear.3 mph100%30.02 "Hg7 mi
3:58 AM63 °FPassing clouds.2 mph100%30.03 "Hg7 mi
2:58 AM63 °FFog.3 mph100%30.02 "Hg6 mi
2:00 AM63 °FFog.5 mph100%30.00 "Hg5 mi
12:58 AM63 °FPassing clouds.3 mph100%30.02 "Hg7 mi
11:58 PM
Fri, Sep 30
63 °FFog.3 mph100%30.02 "Hg6 mi
10:58 PM64 °FClear.2 mph98%30.02 "Hg8 mi
9:58 PM64 °FPassing clouds.3 mph99%30.01 "Hg8 mi
8:58 PM64 °FClear.5 mph98%30.00 "Hg9 mi
7:58 PM64 °FClear.3 mph98%29.99 "Hg10 mi
6:58 PM65 °FClear.3 mph95%29.98 "Hg10 mi
5:58 PM64 °FSunny.5 mph93%29.95 "Hg10 mi
4:58 PM64 °FSunny.2 mph94%29.96 "Hg10 mi
4:01 PM64 °FPassing clouds.2 mph94%29.95 "Hg10 mi
3:58 PM65 °FPassing clouds.3 mph91%29.95 "Hg10 mi
3:04 PM66 °FLight rain. Scattered clouds.5 mph94%29.94 "Hg10 mi
2:58 PM65 °FLight rain. Partly sunny.6 mph96%29.95 "Hg9 mi
1:58 PM65 °FLight rain. Fog.1 mph96%29.97 "Hg5 mi
12:58 PM65 °FLight rain. Fog.No wind96%29.99 "Hg5 mi
11:58 AM65 °FLight rain. Overcast.5 mph97%29.98 "Hg7 mi
10:58 AM65 °FLight rain. Fog.5 mph97%30.00 "Hg4 mi
Weather by CustomWeather, © 2016

See weather overviewHow to use our weather pages